Location: Newark
(43.6583°N, 1.6617°E)
Time: 22:31:42
(UTC+00:00)

Transit 4A - Pass Details

Date: 31 August 2019
Orbit: 865 x 980 km, 66.8° (Epoch: 15 September)

Event Time Altitude Azimuth Distance (km) Brightness Sun altitude
Rises 22:56:48 0° 333° (NNW) 3,643 12.0 -36.3°
Reaches altitude 10° 23:00:02 10° 349° (NNW) 2,675 11.0 -36.5°
Maximum altitude 23:04:45 22° 38° (NE) 1,924 9.8 -36.7°
Enters shadow 23:05:19 22° 46° (NE) 1,934 9.7 -36.7°
